Location: Newark
(33.9035°S, 18.4112°E)
Time: 15:25:03
(UTC+00:00)

STARLINK-1075 - Pass Details

Date: 22 January 2020
Orbit: 349 x 350 km, 53.0° (Epoch: 18 February)

Event Time Altitude Azimuth Distance (km) Brightness Sun altitude
Exits shadow 01:43:49 23° 95° (E) 813 5.0 -23.3°
Drops below altitude 10° 01:45:21 10° 116° (ESE) 1,335 6.5 -23.1°
Enters shadow 02:39:03 -73° 315° (NW) 12,533 10.5 -14.8°
